Weather History for KCNC - October, 2012

Change the Weather History Date:

Tuesday, October 9, 2012

  Actual Average Record
Temperature  
Mean Temperature 50 °F -  
Max Temperature 62 °F 65 °F 84 °F (2010)
Min Temperature 39 °F 42 °F 22 °F (1964)
Degree Days  
Heating Degree Days 14    
Moisture  
Dew Point 37 °F    
Average Humidity 59    
Maximum Humidity 76    
Minimum Humidity 39    
Precipitation  
Precipitation 0.01 in - - ()
Sea Level Pressure  
Sea Level Pressure 29.94 in    
Wind  
Wind Speed 12 mph (WSW)    
Max Wind Speed 17 mph    
Max Gust Speed 26 mph    
Visibility 10 miles    
Events Rain    
Averages and records for this station are not official NWS values.
T = Trace of Precipitation, MM = Missing Value Source: NWS Daily Summary

Daily Weather History Graph

Daily Weather History Graph

Search for Another Location

Airport or City:

Trip Planner

Search our weather history database for the weather conditions in past years. The results will help you decide how hot, cold, wet, or windy it might be!

Date:

Astronomy

Oct. 09, 2012 Rise Set
Actual Time 7:18 AM CDT 6:41 PM CDT
Civil Twilight 6:51 AM CDT 7:08 PM CDT
Nautical Twilight 6:19 AM CDT 7:40 PM CDT
Astronomical Twilight 5:47 AM CDT 8:12 PM CDT
Moon 12:53 AM CDT (10/9) 3:11 PM CDT (10/9)
Length of Visible Light 12h 17m
Length of Day
11h 22m
Last Quarter, 36% of the Moon is Illuminated
Oct 9
Last Quarter
Oct 15
New
Oct 21
First Quarter
Oct 29
Full
Nov 6
Last Quarter

Hourly Weather History & Observations

Time (CDT) Temp. Windchill Dew Point Humidity Pressure Visibility Wind Dir Wind Speed Gust Speed Precip Events Conditions
12:15 AM 53.6 °F - 35.6 °F 51% 29.89 in 10.0 mi SSW 15.0 mph 20.7 mph N/A   Clear
12:35 AM 53.6 °F - 35.6 °F 51% 29.89 in 10.0 mi SSW 17.3 mph 20.7 mph N/A   Clear
12:55 AM 53.6 °F - 35.6 °F 51% 29.88 in 10.0 mi SSW 15.0 mph 20.7 mph N/A   Clear
1:15 AM 53.6 °F - 35.6 °F 51% 29.89 in 10.0 mi SSW 17.3 mph 23.0 mph N/A   Clear
1:35 AM 51.8 °F - 35.6 °F 54% 29.88 in 10.0 mi SSW 16.1 mph 21.9 mph N/A   Clear
1:55 AM 51.8 °F - 35.6 °F 54% 29.89 in 10.0 mi SSW 13.8 mph 20.7 mph N/A   Clear
2:15 AM 51.8 °F - 35.6 °F 54% 29.89 in 10.0 mi SSW 13.8 mph 19.6 mph N/A   Clear
2:55 AM 51.8 °F - 37.4 °F 58% 29.89 in 10.0 mi SSW 11.5 mph 18.4 mph N/A   Clear
3:15 AM 51.8 °F - 37.4 °F 58% 29.89 in 10.0 mi SSW 12.7 mph 17.3 mph N/A   Clear
3:35 AM 51.8 °F - 37.4 °F 58% 29.89 in 10.0 mi SSW 11.5 mph - N/A   Clear
3:55 AM 51.8 °F - 37.4 °F 58% 29.88 in 10.0 mi SSW 11.5 mph - N/A   Clear
4:15 AM 50.0 °F - 37.4 °F 62% 29.88 in 10.0 mi SSW 13.8 mph - N/A   Clear
4:35 AM 50.0 °F - 37.4 °F 62% 29.88 in 10.0 mi SSW 11.5 mph - N/A   Clear
4:55 AM 51.8 °F - 37.4 °F 58% 29.88 in 10.0 mi SSW 10.4 mph - N/A   Clear
5:15 AM 51.8 °F - 37.4 °F 58% 29.87 in 10.0 mi SSW 11.5 mph - N/A   Clear
5:35 AM 51.8 °F - 37.4 °F 58% 29.88 in 10.0 mi SSW 12.7 mph 17.3 mph N/A   Clear
5:55 AM 51.8 °F - 37.4 °F 58% 29.87 in 10.0 mi SSW 11.5 mph - N/A   Clear
6:15 AM 51.8 °F - 37.4 °F 58% 29.87 in 10.0 mi SSW 9.2 mph - N/A   Clear
6:55 AM 51.8 °F - 37.4 °F 58% 29.87 in 10.0 mi SSW 13.8 mph - N/A   Clear
7:15 AM 51.8 °F - 37.4 °F 58% 29.87 in 10.0 mi SSW 10.4 mph - N/A   Clear
7:35 AM 51.8 °F - 37.4 °F 58% 29.87 in 10.0 mi SSW 9.2 mph - N/A   Clear
7:55 AM 51.8 °F - 37.4 °F 58% 29.88 in 10.0 mi SW 8.1 mph - N/A   Clear
8:15 AM 51.8 °F - 37.4 °F 58% 29.88 in 10.0 mi SSW 8.1 mph - N/A   Clear
8:35 AM 51.8 °F - 37.4 °F 58% 29.89 in 10.0 mi SSW 9.2 mph - N/A   Clear
8:55 AM 51.8 °F - 37.4 °F 58% 29.89 in 10.0 mi SSW 9.2 mph - N/A   Clear
9:15 AM 53.6 °F - 37.4 °F 54% 29.89 in 10.0 mi SSW 9.2 mph - N/A   Clear
9:35 AM 53.6 °F - 37.4 °F 54% 29.89 in 10.0 mi SW 9.2 mph 17.3 mph N/A   Clear
9:55 AM 55.4 °F - 37.4 °F 51% 29.89 in 10.0 mi SW 11.5 mph - N/A   Clear
10:15 AM 55.4 °F - 37.4 °F 51% 29.89 in 10.0 mi SW 12.7 mph 17.3 mph N/A   Clear
10:35 AM 57.2 °F - 37.4 °F 48% 29.89 in 10.0 mi SW 11.5 mph - N/A   Clear
10:55 AM 59.0 °F - 37.4 °F 45% 29.90 in 10.0 mi WSW 12.7 mph 16.1 mph N/A   Clear
11:15 AM 60.8 °F - 37.4 °F 42% 29.89 in 10.0 mi WSW 15.0 mph - N/A   Clear
11:35 AM 60.8 °F - 37.4 °F 42% 29.89 in 10.0 mi West 10.4 mph - N/A   Clear
11:55 AM 60.8 °F - 37.4 °F 42% 29.89 in 10.0 mi West 8.1 mph - N/A   Clear
12:15 PM 62.6 °F - 37.4 °F 39% 29.89 in 10.0 mi WNW 10.4 mph 17.3 mph N/A   Clear
12:35 PM 62.6 °F - 39.2 °F 42% 29.89 in 10.0 mi WNW 9.2 mph - N/A   Clear
12:55 PM 62.6 °F - 37.4 °F 39% 29.89 in 10.0 mi West 8.1 mph - N/A   Clear
1:15 PM 62.6 °F - 39.2 °F 42% 29.89 in 10.0 mi West 8.1 mph - N/A   Scattered Clouds
1:35 PM 62.6 °F - 41.0 °F 45% 29.90 in 10.0 mi NW 13.8 mph 19.6 mph N/A   Overcast
1:55 PM 60.8 °F - 42.8 °F 52% 29.92 in 10.0 mi NW 13.8 mph 20.7 mph N/A   Overcast
2:15 PM 59.0 °F - 42.8 °F 55% 29.92 in 10.0 mi NW 12.7 mph 21.9 mph N/A   Overcast
2:35 PM 57.2 °F - 42.8 °F 59% 29.93 in 10.0 mi NW 15.0 mph 20.7 mph N/A   Overcast
2:55 PM 57.2 °F - 42.8 °F 59% 29.94 in 10.0 mi NNW 13.8 mph 18.4 mph N/A   Overcast
3:15 PM 57.2 °F - 42.8 °F 59% 29.94 in 10.0 mi NW 12.7 mph - N/A   Overcast
3:35 PM 55.4 °F - 41.0 °F 58% 29.95 in 10.0 mi NNW 17.3 mph 23.0 mph N/A   Overcast
3:55 PM 51.8 °F - 42.8 °F 71% 29.96 in 10.0 mi NW 12.7 mph 18.4 mph N/A Rain Light Rain
4:15 PM 50.0 °F - 41.0 °F 71% 29.98 in 10.0 mi NW 11.5 mph 26.5 mph N/A Rain Light Rain
4:35 PM 48.2 °F - 39.2 °F 71% 29.99 in 10.0 mi NW 13.8 mph - N/A   Drizzle
4:55 PM 46.4 °F 42.4 °F 39.2 °F 76% 29.99 in 10.0 mi NW 8.1 mph - 0.01 in   Drizzle
5:15 PM 46.4 °F 45.2 °F 39.2 °F 76% 29.98 in 10.0 mi NW 3.5 mph - N/A   Overcast
5:35 PM 46.4 °F 44.3 °F 39.2 °F 76% 29.98 in 10.0 mi WNW 4.6 mph - N/A   Overcast
5:55 PM 48.2 °F - 39.2 °F 71% 29.98 in 10.0 mi WNW 4.6 mph - N/A   Overcast
6:15 PM 48.2 °F - 39.2 °F 71% 29.98 in 10.0 mi West 3.5 mph - N/A   Overcast
6:35 PM 48.2 °F - 39.2 °F 71% 29.99 in 10.0 mi West 3.5 mph - N/A   Overcast
6:55 PM 48.2 °F - 39.2 °F 71% 30.00 in 10.0 mi West 4.6 mph - N/A   Mostly Cloudy
7:15 PM 46.4 °F 44.3 °F 39.2 °F 76% 30.00 in 10.0 mi West 4.6 mph - N/A   Clear
7:35 PM 46.4 °F 44.3 °F 39.2 °F 76% 30.01 in 10.0 mi West 4.6 mph - N/A   Clear
7:55 PM 46.4 °F 42.9 °F 37.4 °F 71% 30.02 in 10.0 mi West 6.9 mph - N/A   Clear
8:15 PM 46.4 °F 43.5 °F 37.4 °F 71% 30.02 in 10.0 mi West 5.8 mph - N/A   Clear
8:35 PM 44.6 °F 42.2 °F 35.6 °F 71% 30.03 in 10.0 mi West 4.6 mph - N/A   Clear
8:55 PM 44.6 °F 40.7 °F 35.6 °F 71% 30.03 in 10.0 mi West 6.9 mph - N/A   Clear
9:15 PM 44.6 °F 39.2 °F 33.8 °F 66% 30.05 in 10.0 mi WNW 10.4 mph 18.4 mph N/A   Clear
9:35 PM 44.6 °F 39.2 °F 32.0 °F 61% 30.07 in 10.0 mi NW 10.4 mph - N/A   Clear
9:55 PM 44.6 °F 39.7 °F 33.8 °F 66% 30.08 in 10.0 mi NW 9.2 mph - N/A   Clear
10:15 PM 42.8 °F 38.0 °F 32.0 °F 66% 30.09 in 10.0 mi NW 8.1 mph - N/A   Clear
10:35 PM 42.8 °F 38.6 °F 32.0 °F 66% 30.09 in 10.0 mi WNW 6.9 mph - N/A   Clear
10:55 PM 42.8 °F 38.0 °F 30.2 °F 61% 30.09 in 10.0 mi NW 8.1 mph - N/A   Clear
11:15 PM 39.2 °F 33.6 °F 30.2 °F 70% 30.10 in 10.0 mi WNW 8.1 mph - N/A   Clear
11:35 PM 41.0 °F 34.7 °F 30.2 °F 65% 30.10 in 10.0 mi NW 10.4 mph - N/A   Clear
11:55 PM 41.0 °F 35.2 °F 30.2 °F 65% 30.10 in 10.0 mi NW 9.2 mph - N/A   Clear